Вернуться в каталог

STARLINK-38115

АктивенСвязьSSO
NORAD 100111·PAYLOAD·🇺🇸 United States

Запущен Jul 21, 2026 с Vandenberg Space Force Base

Loading…

Ближайшие Пролёты (ближайшие 24 часа)

TLE

СвежийSource: Space-Track

Эпоха: Sep 14, 2026, 19:25 UTC

1 A0111U 26166L   26257.80936488  .00232127  00000-0  15123-2 0  9993
2 A0111  97.2834 275.8171 0001622  81.4873 278.6576 15.75233956  8703

Отслеживайте STARLINK-38115 в реальном времени с AllMySat

Download on the App Store